This is the latest recevied weather packets stored in our database for station/object K7SPS-10. If no packets are shown the sender has not sent any weather packets the latest 10 day(s).
| Time | Temp. | Humidity | Pressure | Rain* | Wind** | Luminosity | Snow |
|---|---|---|---|---|---|---|---|
| 1777830307 | 21.11° C | 40% | 1014.3 hPa | 0 mm | - | 695 W/m² | - |
| 1777830002 | 20° C | 41% | 1014.4 hPa | 0 mm | - | 686 W/m² | - |
| 1777829697 | 20° C | 42% | 1014.3 hPa | 0 mm | - | 677 W/m² | - |
| 1777829394 | 19.44° C | 44% | 1014.3 hPa | 0 mm | - | 667 W/m² | - |
| 1777829092 | 19.44° C | 44% | 1014.6 hPa | 0 mm | - | 658 W/m² | - |
| 1777828788 | 18.89° C | 45% | 1014.5 hPa | 0 mm | - | 647 W/m² | - |
| 1777828485 | 18.89° C | 46% | 1014.7 hPa | 0 mm | - | 633 W/m² | - |
| 1777828183 | 18.33° C | 46% | 1014.5 hPa | 0 mm | - | 630 W/m² | - |
| 1777827878 | 18.33° C | 46% | 1014.6 hPa | 0 mm | - | 619 W/m² | - |
| 1777827576 | 18.33° C | 47% | 1014.5 hPa | 0 mm | - | 606 W/m² | - |
| 1777827274 | 17.78° C | 48% | 1014.7 hPa | 0 mm | - | 594 W/m² | - |
| 1777826969 | 17.78° C | 48% | 1014.8 hPa | 0 mm | - | 578 W/m² | - |
| 1777826667 | 17.22° C | 49% | 1014.5 hPa | 0 mm | - | 561 W/m² | - |
| 1777826363 | 17.22° C | 50% | 1014.5 hPa | 0 mm | - | 552 W/m² | - |
| 1777826061 | 16.67° C | 51% | 1014.8 hPa | 0 mm | - | 542 W/m² | - |
| 1777825757 | 16.67° C | 52% | 1014.8 hPa | 0 mm | - | 525 W/m² | - |
| 1777825455 | 16.11° C | 53% | 1014.8 hPa | 0 mm | - | 516 W/m² | - |
| 1777825152 | 16.11° C | 54% | 1014.7 hPa | 0 mm | - | 506 W/m² | - |
| 1777824848 | 15.56° C | 56% | 1014.7 hPa | 0 mm | - | 492 W/m² | - |
| 1777824545 | 15.56° C | 54% | 1014.8 hPa | 0 mm | - | 479 W/m² | - |
| 1777824241 | 15° C | 55% | 1015.2 hPa | 0 mm | - | 468 W/m² | - |
| 1777823937 | 15° C | 56% | 1014.9 hPa | 0 mm | - | 452 W/m² | - |
| 1777823635 | 14.44° C | 55% | 1015.1 hPa | 0 mm | - | 437 W/m² | - |
| 1777823331 | 14.44° C | 56% | 1015.2 hPa | 0 mm | - | 421 W/m² | - |
| 1777823029 | 13.89° C | 56% | 1015.1 hPa | 0 mm | - | 406 W/m² | - |
* Rain latest hour (hover to see other rain measurements)
** Current wind speed in m/s (hover to see current wind gust speed)